sat.trackr.live / text

‹ back to catalog

STARLINK-32134

NORAD 60300 · 2024-132Y

PAYLOAD ACTIVE UNKNOWN

§ Identity

Operator
Country
US
Launch date
2024-07-28
Launch site
AFETR
Launch vehicle
Mass (kg)
RCS (m²)

Purposes: comms

External: N2YO · Heavens-Above · Gunter

§ Orbital elements

Epoch: 2026-09-21T21:46:14.995200Z

Period
93.85 min
Inclination
53.1599°
Eccentricity
0.0001341
Mean motion
15.34386514 rev/d
Perigee alt
461.8 km
Apogee alt
463.7 km
Semi-major
6,840.9 km
B*
-8.4291e-6
RAAN
218.7868°
Arg perigee
88.9905°
Mean anomaly
271.1251°
Rev number
12,163

§ Raw data

STARLINK-321341 60300U 24132Y   26264.90711800 -.00000661  00000+0 -84291-5 0  99902 60300  53.1599 218.7868 0001341  88.9905 271.1251 15.34386514121633

JSON: /api/v1/satellites/60300 · /tle

For live sub-satellite position, see the globe view (requires WebGL).

§ Visibility from observer

Set your observer location to see the next 7 days of passes ≥ 10°. The values pass through the URL so the page stays shareable.

No JS? Fill the form by hand. The geolocation button needs JavaScript.